Waarnemingen

Advertentie
Mijn weer
Manston, Groot Brittannië (3797): temperatuur & dauwpunt: 26.03.2020 18:00:00 - 01.04.2020 18:00:00 (BST)Manston, Groot Brittannië (3797): temperatuur -20cm & temperatuur -100cm: 26.03.2020 18:00:00 - 01.04.2020 18:00:00 (BST)Manston, Groot Brittannië (3797): windsnelheid & windstoten: 26.03.2020 18:00:00 - 01.04.2020 18:00:00 (BST)Manston, Groot Brittannië (3797): windrichting: 26.03.2020 18:00:00 - 01.04.2020 18:00:00 (BST)Manston, Groot Brittannië (3797): luchtdruk: 26.03.2020 18:00:00 - 01.04.2020 18:00:00 (BST)Manston, Groot Brittannië (3797): zicht: 26.03.2020 18:00:00 - 01.04.2020 18:00:00 (BST)Manston, Groot Brittannië (3797): Zonneschijnduur: 26.03.2020 18:00:00 - 01.04.2020 18:00:00 (BST)Manston, Groot Brittannië (3797): neerslag: 26.03.2020 18:00:00 - 01.04.2020 18:00:00 (BST)
Datum & Tijd tt [°C] td [°C] tt -20cm [°C] tt -100cm [°C] ff [km/u] ff [kn] fx [km/u] fx [kn] dd ppp [hPa] vv [km] sd [min] rr [mm]
01.04.2020 18:00:00 7,1 0,5 - - 9 5 - - NW 1020,5 40 0 0,0
01.04.2020 17:00:00 7,4 0,6 - - 11 6 - - NW 1020,9 30 0 0,0
01.04.2020 16:00:00 7,0 -0,2 - - 11 6 - - N 1021,4 45 12 0,0
01.04.2020 15:00:00 8,0 -0,1 - - 9 5 - - N 1022,1 28 60 0,0
01.04.2020 14:00:00 8,0 0,4 - - 9 5 - - N 1022,5 40 60 0,0
01.04.2020 13:00:00 7,5 0,6 - - 9 5 - - NNW 1023,0 40 60 0,0
01.04.2020 12:00:00 7,4 0,9 - - 11 6 - - NNW 1023,8 35 60 0,0
01.04.2020 11:00:00 6,8 0,7 - - 9 5 - - N 1024,4 28 54 0,0
01.04.2020 10:00:00 6,7 1,9 7,0 7,7 9 5 - - NNO 1025,0 45 42 0,0
01.04.2020 09:00:00 6,2 2,8 - - 13 7 - - N 1025,0 30 36 0,0
01.04.2020 08:00:00 3,2 0,3 - - 4 2 - - N 1025,3 28 0 0,0
01.04.2020 07:00:00 2,3 -0,6 - - 5 3 - - NNO 1025,4 30 0 0,0
01.04.2020 06:00:00 2,4 -0,9 - - 8 4 - - NO 1025,5 30 0 0,0
01.04.2020 05:00:00 2,2 -1,0 - - 5 3 - - NO 1025,9 35 0 0,0
01.04.2020 04:00:00 2,5 -0,8 - - 8 4 - - ONO 1026,3 29 0 0,0
01.04.2020 03:00:00 3,1 -0,8 - - 8 4 - - NO 1027,0 35 0 0,0
01.04.2020 02:00:00 3,5 -0,5 - - 9 5 - - NO 1027,6 30 0 0,0
01.04.2020 01:00:00 3,9 -0,3 - - 13 7 - - NO 1028,1 30 - 0,0
01.04.2020 00:00:00 4,2 0,1 - - 15 8 - - NO 1028,7 30 0 0,0
31.03.2020 23:00:00 4,1 0,1 - - 13 7 - - NO 1029,0 30 0 0,0
31.03.2020 22:00:00 3,8 -0,5 - - 11 6 - - NO 1029,3 25 0 0,0
31.03.2020 21:00:00 4,1 -0,6 - - 13 7 - - NO 1029,8 35 0 0,0
31.03.2020 20:00:00 4,7 -0,7 - - 21 11 - - NO 1029,9 40 24 0,0
31.03.2020 19:00:00 5,3 -0,9 - - 24 13 - - NNO 1030,0 30 60 0,0
31.03.2020 18:00:00 6,3 -0,9 - - 22 12 - - NNO 1030,3 40 60 0,0
31.03.2020 17:00:00 7,1 0,2 - - 21 11 - - NO 1030,6 35 60 -
31.03.2020 16:00:00 7,6 -0,5 - - 21 11 - - NO 1030,9 35 60 0,0
31.03.2020 15:00:00 7,9 -1,2 - - 21 11 - - NO 1031,4 50 60 0,0
31.03.2020 14:00:00 7,7 -1,8 - - 21 11 - - ONO 1031,8 35 60 0,0
31.03.2020 13:00:00 8,9 2,0 - - 22 12 - - ONO 1031,9 25 42 0,0
31.03.2020 12:00:00 8,2 2,2 - - 22 12 - - ONO 1032,0 28 42 0,0
31.03.2020 11:00:00 8,5 2,2 - - 24 13 - - ONO 1032,2 27 54 0,0
31.03.2020 10:00:00 7,2 1,8 7,2 7,7 26 14 - - ONO 1032,2 19 60 0,0
31.03.2020 09:00:00 7,2 3,1 - - 24 13 - - ONO 1031,7 30 42 0,0
31.03.2020 08:00:00 6,0 2,4 - - 18 10 - - ONO 1031,3 25 18 0,0
31.03.2020 07:00:00 5,1 1,7 - - 16 9 - - NO 1030,9 30 0 0,2
31.03.2020 06:00:00 4,9 2,4 - - 15 8 - - NO 1030,4 26 0 0,0
31.03.2020 05:00:00 5,3 3,1 - - 21 11 - - NNO 1030,3 6 0 0,4
31.03.2020 04:00:00 5,7 2,1 - - 21 11 - - NNO 1030,1 28 0 0,0
31.03.2020 03:00:00 5,6 1,2 - - 24 13 - - NNO 1030,3 30 0 0,0
31.03.2020 02:00:00 5,3 2,0 - - 24 13 - - NNO 1030,3 17 0 0,0
31.03.2020 01:00:00 5,3 1,5 - - 24 13 - - NNO 1030,4 26 - 0,0
31.03.2020 00:00:00 5,8 2,7 - - 26 14 - - NNO 1030,5 15 0 0,0
30.03.2020 23:00:00 5,4 2,9 - - 24 13 - - N 1030,6 16 0 0,0
30.03.2020 22:00:00 5,8 3,2 - - 26 14 - - NNO 1030,5 10 0 0,0
30.03.2020 21:00:00 6,3 3,4 - - 28 15 - - NNO 1030,4 16 0 0,0
30.03.2020 20:00:00 6,1 3,6 - - 21 11 - - N 1030,3 17 0 0,0
30.03.2020 19:00:00 6,2 2,8 - - 21 11 - - NNO 1030,3 25 6 0,0
30.03.2020 18:00:00 7,0 3,0 - - 22 12 - - NNO 1030,5 16 60 0,0
30.03.2020 17:00:00 7,5 2,7 - - 24 13 - - NNO 1030,9 14 60 0,0
30.03.2020 16:00:00 7,3 2,0 - - 26 14 - - NNO 1031,3 20 48 0,0
30.03.2020 15:00:00 7,9 2,6 - - 22 12 - - N 1031,8 21 60 0,0
30.03.2020 14:00:00 8,2 2,2 - - 18 10 - - N 1032,3 25 60 0,0
30.03.2020 13:00:00 7,7 3,3 - - 22 12 - - NNW 1032,8 20 54 0,0
30.03.2020 12:00:00 6,8 2,8 - - 21 11 - - NNW 1033,3 16 60 0,0
30.03.2020 11:00:00 5,8 1,8 - - 21 11 - - NNW 1034,0 13 60 0,0
30.03.2020 10:00:00 5,1 1,5 6,7 7,7 21 11 - - NNW 1034,5 29 54 0,0
30.03.2020 09:00:00 4,7 1,7 - - 21 11 - - N 1034,5 30 36 0,0
30.03.2020 08:00:00 4,0 1,0 - - 16 9 - - N 1034,8 22 18 0,0
30.03.2020 07:00:00 3,1 -0,2 - - 18 10 - - N 1035,0 30 0 0,2
30.03.2020 06:00:00 4,0 -0,6 - - 26 14 - - N 1035,1 30 0 0,0
30.03.2020 05:00:00 4,3 -5,1 - - 24 13 - - NNO 1035,3 45 0 0,0
30.03.2020 04:00:00 3,9 -1,8 - - 24 13 - - NNO 1035,7 21 0 0,0
30.03.2020 03:00:00 4,5 -3,6 - - 22 12 - - NO 1036,3 26 0 0,0
30.03.2020 02:00:00 4,4 -4,8 - - 28 15 46 25 NNO 1037,0 30 0 0,0
30.03.2020 01:00:00 4,6 -4,0 - - 31 17 50 27 NO 1037,2 30 - 0,0
30.03.2020 00:00:00 4,6 -3,5 - - 28 15 54 29 NO 1037,4 24 0 0,0
29.03.2020 23:00:00 4,5 -5,0 - - 37 20 61 33 NNO 1037,7 28 0 0,0
29.03.2020 22:00:00 4,4 -4,7 - - 39 21 59 32 NNO 1037,9 30 0 0,0
29.03.2020 21:00:00 4,5 -4,2 - - 39 21 59 32 NNO 1037,8 26 0 0,0
29.03.2020 20:00:00 4,5 -5,6 - - 41 22 63 34 NNO 1037,4 30 0 0,0
29.03.2020 19:00:00 4,6 -4,2 - - 48 26 72 39 NNO 1037,2 19 18 0,0
29.03.2020 18:00:00 4,8 -4,4 - - 50 27 68 37 NNO 1036,7 28 6 0,0
29.03.2020 17:00:00 5,4 -3,5 - - 50 27 72 39 NNO 1036,6 18 6 0,0
29.03.2020 16:00:00 5,8 -3,3 - - 52 28 70 38 NNO 1036,3 24 6 0,0
29.03.2020 15:00:00 5,4 -3,5 - - 48 26 70 38 NNO 1036,1 18 12 0,0
29.03.2020 14:00:00 6,0 -2,8 - - 48 26 68 37 NNO 1036,0 16 42 0,0
29.03.2020 13:00:00 6,4 -2,0 - - 46 25 74 40 NNO 1035,7 16 36 0,0
29.03.2020 12:00:00 6,8 1,1 - - 44 24 68 37 NNO 1035,3 9 42 0,0
29.03.2020 11:00:00 3,6 1,5 - - 37 20 70 38 NO 1035,1 15 12 0,6
29.03.2020 10:00:00 4,8 2,0 7,2 7,7 42 23 59 32 N 1034,5 13 6 0,2
29.03.2020 09:00:00 2,9 0,7 - - 50 27 81 44 NNO 1034,3 5 12 0,0
29.03.2020 08:00:00 5,1 -1,8 - - 46 25 67 36 N 1033,3 12 0 0,0
29.03.2020 07:00:00 4,2 -2,3 - - 44 24 68 37 N 1033,1 12 0 0,0
29.03.2020 06:00:00 4,9 -4,9 - - 42 23 65 35 NNO 1032,9 22 0 0,0
29.03.2020 05:00:00 4,2 -0,6 - - 37 20 63 34 N 1033,0 11 0 0,0
29.03.2020 04:00:00 5,0 -4,7 - - 42 23 70 38 NNO 1032,8 25 0 0,0
29.03.2020 03:00:00 5,2 -3,4 - - 48 26 68 37 NNO 1032,6 19 - 0,0
29.03.2020 02:00:00 5,3 -0,4 - - 41 22 61 33 NNO 1032,6 11 0 0,0
29.03.2020 01:00:00 5,6 -0,6 - - 41 22 65 35 NNO 1032,5 17 - 0,0
29.03.2020 00:00:00 5,6 1,2 - - 39 21 65 35 NNO 1031,9 13 0 0,0
28.03.2020 23:00:00 6,0 2,4 - - 41 22 59 32 NNO 1031,6 14 0 0,0
28.03.2020 22:00:00 6,1 1,5 - - 39 21 63 34 NNO 1031,1 14 0 0,0
28.03.2020 21:00:00 6,4 1,6 - - 39 21 57 31 NNO 1030,9 15 0 0,0
28.03.2020 20:00:00 6,5 1,8 - - 39 21 65 35 NNO 1030,4 12 0 0,0
28.03.2020 19:00:00 6,8 1,7 - - 41 22 61 33 NNO 1029,9 13 6 0,0
28.03.2020 18:00:00 7,5 3,5 - - 41 22 61 33 NNO 1029,1 14 12 0,0
28.03.2020 17:00:00 7,5 3,7 - - 41 22 59 32 NNO 1028,8 12 0 0,0
28.03.2020 16:00:00 8,0 3,1 - - 41 22 55 30 NNO 1028,5 20 0 0,0
28.03.2020 15:00:00 7,9 4,1 - - 37 20 61 33 NNO 1028,4 15 0 0,0
28.03.2020 14:00:00 8,3 3,8 - - 41 22 61 33 NNO 1028,4 19 0 0,0
28.03.2020 13:00:00 8,2 4,1 - - 44 24 61 33 NNO 1028,0 15 24 0,0
28.03.2020 12:00:00 8,3 4,3 - - 42 23 63 34 NNO 1027,3 10 54 0,0
28.03.2020 11:00:00 8,3 4,6 - - 42 23 63 34 NNO 1026,6 8 60 0,0
28.03.2020 10:00:00 8,5 5,2 7,5 7,9 39 21 55 30 NNO 1025,8 7 60 0,0
28.03.2020 09:00:00 8,1 5,1 - - 34 18 52 28 NNO 1025,2 7 12 0,0
28.03.2020 08:00:00 7,5 5,0 - - 37 20 54 29 NNO 1024,6 7 0 0,0
28.03.2020 07:00:00 7,2 4,7 - - 34 18 50 27 NNO 1024,0 8 0 0,0
28.03.2020 06:00:00 7,1 4,6 - - 31 17 50 27 NNO 1023,5 8 0 0,0
28.03.2020 05:00:00 7,2 4,8 - - 31 17 - - NNO 1023,2 8 0 0,0
28.03.2020 04:00:00 7,2 4,9 - - 28 15 - - NNO 1023,1 6 0 0,0
28.03.2020 03:00:00 7,3 4,9 - - 28 15 - - NNO 1023,1 7 0 0,0
28.03.2020 02:00:00 7,5 4,6 - - 28 15 - - NNO 1023,0 8 0 0,0
28.03.2020 01:00:00 7,4 4,4 - - 31 17 46 25 NNO 1023,1 8 - 0,0
28.03.2020 00:00:00 7,4 3,7 - - 29 16 - - NNO 1023,0 9 0 0,0
27.03.2020 23:00:00 7,3 3,7 - - 29 16 46 25 NNO 1023,1 9 0 0,0
27.03.2020 22:00:00 7,3 3,9 - - 31 17 - - NNO 1022,8 9 0 0,0
27.03.2020 21:00:00 7,0 4,2 - - 31 17 46 25 NNO 1022,7 8 0 0,0
27.03.2020 20:00:00 7,2 4,4 - - 34 18 46 25 NNO 1022,5 7 0 0,0
27.03.2020 19:00:00 7,4 4,6 - - 31 17 48 26 NNO 1022,1 8 18 0,0
27.03.2020 18:00:00 8,0 4,5 - - 35 19 52 28 NNO 1021,7 8 60 0,0
27.03.2020 17:00:00 8,6 4,5 - - 35 19 54 29 NNO 1021,6 9 60 0,0
27.03.2020 16:00:00 9,1 4,9 - - 34 18 50 27 NNO 1021,7 9 60 0,0
27.03.2020 15:00:00 9,3 5,2 - - 37 20 52 28 NNO 1022,0 8 60 0,0
27.03.2020 14:00:00 9,8 5,4 - - 35 19 - - NNO 1022,3 9 60 0,0
27.03.2020 13:00:00 9,7 4,4 - - 31 17 - - NNO 1022,7 10 60 0,0
27.03.2020 12:00:00 9,6 4,1 - - 31 17 - - NNO 1022,9 9 60 0,0
27.03.2020 11:00:00 9,4 4,0 - - 26 14 - - NNO 1022,9 12 60 0,0
27.03.2020 10:00:00 8,7 3,8 7,0 7,9 26 14 - - NNO 1022,7 10 60 0,0
27.03.2020 09:00:00 8,1 3,4 - - 22 12 - - NNO 1022,5 9 60 0,0
27.03.2020 08:00:00 7,1 3,3 - - 18 10 - - NNO 1022,2 11 30 0,0
27.03.2020 07:00:00 6,5 2,4 - - 18 10 - - NNO 1022,3 12 0 0,0
27.03.2020 06:00:00 6,3 2,6 - - 16 9 - - NNO 1022,1 11 0 0,0
27.03.2020 05:00:00 6,3 2,4 - - 15 8 - - NNO 1022,2 12 0 0,0
27.03.2020 04:00:00 6,3 2,6 - - 15 8 - - NO 1022,2 10 - 0,0
27.03.2020 03:00:00 6,2 2,2 - - 13 7 - - NO 1022,2 12 0 0,0
27.03.2020 02:00:00 6,3 2,6 - - 13 7 - - NO 1022,3 10 0 0,0
27.03.2020 01:00:00 6,5 2,9 - - 13 7 46 25 NO 1022,5 11 - 0,0
27.03.2020 00:00:00 6,8 3,3 - - 16 9 - - NO 1022,6 10 0 0,0
26.03.2020 23:00:00 6,6 2,1 - - 16 9 - - NO 1022,7 12 0 0,0
26.03.2020 22:00:00 6,5 1,3 - - 18 10 - - NO 1022,8 13 0 0,0
26.03.2020 21:00:00 6,6 0,7 - - 18 10 - - NO 1023,0 15 0 0,0
26.03.2020 20:00:00 6,5 -0,1 - - 18 10 - - NO 1022,6 18 0 0,0
26.03.2020 19:00:00 6,8 -0,7 - - 22 12 - - NO 1022,2 20 48 0,0
26.03.2020 18:00:00 - - - - - - - - - - - - -

tt = temperatuur
td = dauwpunt
tt -20cm = temperatuur -20cm
tt -100cm = temperatuur -100cm
ff = windsnelheid
fx = windstoten
dd = windrichting
ppp = luchtdruk
vv = zicht
sd = Zonneschijnduur
rr = neerslag

Weerstations in de omgeving